Location: Cahas Mountain Overlook
(37.0833°N, 80.1000°W)
Time: 01:31:50
(UTC-05:00)

Vanguard 2 - Visible Passes

Search period start: 29 November 2023 00:00
Search period end: 09 December 2023 00:00
Orbit: 553 x 2923 km, 32.9° (Epoch: 28 November)

Date Brightness Start Highest point End Pass type
(mag) Time Alt. Az. Time Alt. Az. Time Alt. Az.
29 Nov 9.9 04:02:52 17° SE 04:02:52 17° SE 04:03:55 10° SE visible
29 Nov 11.2 19:25:28 10° S 19:34:58 17° SE 19:36:38 17° SE visible
29 Nov 11.1 21:30:51 10° SW 21:37:52 26° SSW 21:37:52 26° SSW visible
30 Nov 9.7 04:17:44 18° SSE 04:17:44 18° SSE 04:19:04 10° SE visible
30 Nov 11.0 19:38:17 10° S 19:50:30 23° SE 19:51:29 23° SE visible
30 Nov 11.1 21:45:43 10° SW 21:52:44 28° SSW 21:52:44 28° SSW visible
01 Dec 9.7 04:32:36 17° S 04:32:36 17° S 04:33:59 10° SSE visible
01 Dec 10.8 19:51:59 10° SSW 20:06:00 30° SSE 20:06:20 30° SE visible
01 Dec 11.2 22:00:51 10° SW 22:07:35 28° SW 22:07:35 28° SW visible
02 Dec 9.8 04:47:29 14° S 04:47:29 14° S 04:48:31 10° S visible
02 Dec 11.4 18:03:51 10° SSE 18:10:52 14° SE 18:17:42 10° ESE visible
02 Dec 10.6 20:06:13 10° SSW 20:21:11 37° SSE 20:21:11 37° SSE visible
02 Dec 11.2 22:16:13 10° WSW 22:22:25 27° SW 22:22:25 27° SW visible
03 Dec 11.3 18:15:30 10° S 18:26:13 20° SE 18:34:46 13° ESE visible
03 Dec 10.5 20:20:51 10° SW 20:36:00 44° SSE 20:36:00 44° SSE visible
03 Dec 11.3 22:31:45 10° WSW 22:37:14 25° WSW 22:37:14 25° WSW visible
04 Dec 11.1 18:28:40 10° S 18:41:33 26° SE 18:49:34 18° ESE visible
04 Dec 10.4 20:35:46 10° SW 20:50:48 51° S 20:50:48 51° S visible
04 Dec 11.4 22:47:25 10° WSW 22:52:03 22° WSW 22:52:03 22° WSW visible
05 Dec 10.9 18:42:32 10° SSW 18:56:54 33° SE 19:04:21 24° ESE visible
05 Dec 10.3 20:50:56 10° SW 21:05:35 55° S 21:05:35 55° S visible
05 Dec 11.5 23:03:11 10° W 23:06:49 19° WSW 23:06:49 19° WSW visible
06 Dec 10.7 18:56:53 10° SSW 19:12:16 40° SSE 19:19:06 30° ESE visible
06 Dec 10.4 21:06:19 10° WSW 21:20:20 57° SSW 21:20:20 57° SSW visible
06 Dec 11.6 23:19:00 10° W 23:21:33 16° W 23:21:33 16° W visible
07 Dec 10.5 19:11:35 10° SW 19:27:42 47° SSE 19:33:48 37° ESE visible
07 Dec 10.4 21:21:51 10° WSW 21:35:02 55° SW 21:35:02 55° SW visible
07 Dec 11.8 23:34:51 10° W 23:36:16 13° W 23:36:16 13° W visible
08 Dec 11.2 17:20:04 10° S 17:32:20 27° SE 17:45:27 10° E visible
08 Dec 10.3 19:26:33 10° SW 19:43:11 55° SSE 19:48:29 44° ESE visible
08 Dec 10.5 21:37:30 10° WSW 21:49:42 51° WSW 21:49:42 51° WSW visible
